sat.trackr.live / text

‹ back to catalog

STARLINK-30172

NORAD 57410 · 2023-102G

PAYLOAD ACTIVE UNKNOWN

§ Identity

Operator
Country
US
Launch date
2023-07-20
Launch site
AFWTR
Launch vehicle
Mass (kg)
RCS (m²)

Purposes: comms

External: N2YO · Heavens-Above · Gunter

§ Orbital elements

Epoch: 2026-05-25T01:45:13.692096Z

Period
94.27 min
Inclination
43.0032°
Eccentricity
0.0001069
Mean motion
15.27591147 rev/d
Perigee alt
482.3 km
Apogee alt
483.7 km
Semi-major
6,861.2 km
B*
-2.3733e-4
RAAN
177.8955°
Arg perigee
279.2104°
Mean anomaly
80.8626°
Rev number
15,791

§ Raw data

STARLINK-301721 57410U 23102G   26145.07307514 -.00006789  00000+0 -23733-3 0  99922 57410  43.0032 177.8955 0001069 279.2104  80.8626 15.27591147157919

JSON: /api/v1/satellites/57410 · /tle

For live sub-satellite position, see the globe view (requires WebGL).

§ Visibility from observer

Set your observer location to see the next 7 days of passes ≥ 10°. The values pass through the URL so the page stays shareable.

No JS? Fill the form by hand. The geolocation button needs JavaScript.